This demonstration page uses our WeatherBlox Daily Observations layout. Learn more.

Left ArrowRight Arrow

34.74481, -87.66753

Hourly Observations for February 1, 2018

Temp ( °F °C ) Dew Point ( °F °C ) Humidity (%) Winds ( mph kmh ) Pressure ( in mb ) Visibility ( mi km ) Precip ( " mm )
12:53 am 00:53 Clear 49 9.4 38 3.3 66 66 SSW 8 13 30.07 1018 10 16 0.00 0.00
1:53 am 01:53 Clear 48 8.9 40 4.4 74 74 S 9 15 30.06 1018 10 16 0.00 0.00
2:53 am 02:53 Mostly Cloudy 48 8.9 41 5 77 77 SSW 8 13 30.07 1018 10 16 0.00 0.00
3:53 am 03:53 Mostly Cloudy 49 9.4 43 6.1 80 80 SSW 7 11 30.06 1018 10 16 0.00 0.00
4:53 am 04:53 Mostly Cloudy 50 10 44 6.7 80 80 SSW 7 11 30.06 1018 10 16 0.00 0.00
5:14 am 05:14 Cloudy 51 10.6 44 6.7 77 77 SSW 6 9 30.06 1018 10 16 0.00 0.00
5:53 am 05:53 Cloudy 51 10.6 45 7.2 80 80 SSE 6 9 30.05 1018 10 16 0.00 0.00
6:53 am 06:53 Cloudy 51 10.6 45 7.2 80 80 S 5 7 30.06 1018 10 16 0.00 0.00
7:28 am 07:28 Cloudy 52 11.1 45 7.2 77 77 S 7 11 30.06 1018 10 16 0.00 0.00
7:53 am 07:53 Cloudy 53 11.7 46 7.8 77 77 SSW 10 17 30.06 1018 10 16 0.00 0.00
8:53 am 08:53 Cloudy 54 12.2 46 7.8 75 75 SSW 12 19 30.06 1018 10 16 0.00 0.00
9:53 am 09:53 Cloudy 56 13.3 47 8.3 72 72 SW 14 22 30.06 1018 10 16 0.00 0.00
10:53 am 10:53 Cloudy 57 13.9 48 8.9 72 72 SSW 8 13 30.06 1018 10 16 0.00 0.00
11:53 am 11:53 Cloudy 59 15 48 8.9 67 67 SSW 10 17 30.02 1017 10 16 0.00 0.00
12:34 pm 12:34 Cloudy 62 16.7 49 9.4 62 62 SW 12 19 29.97 1015 10 16 0.00 0.00
12:53 pm 12:53 Cloudy 62 16.7 49 9.4 62 62 SW 14 22 29.99 1016 10 16 0.00 0.00
1:32 pm 13:32 Cloudy 62 16.7 50 10 65 65 WSW 12 19 29.97 1015 10 16 0.00 0.00
1:53 pm 13:53 Cloudy with Light Rain 61 16.1 50 10 67 67 WSW 10 17 29.98 1015 9 14 0.00 0.03
2:22 pm 14:22 Cloudy with Rain 59 15 52 11.1 78 78 WSW 10 17 30.00 1016 5 8 0.00 0.03
2:51 pm 14:51 Cloudy 57 14 54 12 88 88 W 6 9 30.00 1016 10 16 0.02 0.51
2:53 pm 14:53 Cloudy 58 14.4 53 11.7 84 84 W 6 9 29.99 1016 10 16 0.02 0.51
3:01 pm 15:01 Cloudy 58 14.4 53 11.7 84 84 W 7 11 30.00 1016 10 16 0.00 0.00
3:30 pm 15:30 Cloudy with Rain 57 13.9 53 11.7 87 87 NW 7 11 30.00 1016 3 4 0.03 0.76
3:33 pm 15:33 Cloudy with Light Rain 57 13.9 53 11.7 87 87 WNW 7 11 30.03 1017 3 5 0.03 0.76
3:49 pm 15:49 Cloudy with Light Rain 55 13 54 12 94 94 NW 8 13 30.03 1017 4 6 0.04 1.02
3:53 pm 15:53 Cloudy with Light Rain 56 13.3 53 11.7 90 90 NNW 7 11 30.01 1016 3 5 0.04 1.02
3:58 pm 15:58 Cloudy with Light Rain 56 13.3 53 11.7 90 90 N 9 15 30.03 1017 2 3 0.00 0.03
4:07 pm 16:07 Cloudy with Light Rain 55 12.8 52 11.1 90 90 N 6 9 30.03 1017 2 2 0.01 0.25
4:18 pm 16:18 Cloudy with Mist and Fog 55 12.8 52 11.1 90 90 NNW 10 17 30.03 1017 3 5 0.01 0.25
4:53 pm 16:53 Cloudy with Rain 52 11.1 48 8.9 86 86 NNW 14 22 30.08 1019 2 3 0.03 0.76
5:10 pm 17:10 Cloudy with Light Rain 49 9.4 46 7.8 90 90 N 18 30 30.12 1020 4 6 0.01 0.25
5:31 pm 17:31 Cloudy 43 6.1 39 3.9 86 86 N 12 19 30.15 1021 9 14 0.01 0.25
5:53 pm 17:53 Cloudy with Light Rain 43 6.1 37 2.8 80 80 N 13 20 30.16 1022 10 16 0.01 0.25
6:03 pm 18:03 Cloudy 43 6.1 37 2.8 80 80 N 12 19 30.18 1022 10 16 0.00 0.03
6:22 pm 18:22 Cloudy 42 5.6 38 3.3 85 85 N 9 15 30.18 1022 8 13 0.00 0.03
6:53 pm 18:53 Cloudy with Light Rain 41 5 37 2.8 86 86 N 5 7 30.22 1023 7 11 0.01 0.25
7:14 pm 19:14 Cloudy with Light Rain 41 5 37 2.8 86 86 N 10 17 30.21 1023 10 16 0.00 0.03
7:36 pm 19:36 Cloudy with Light Rain 41 5 36 2.2 82 82 VRB 7 11 30.24 1024 10 16 0.01 0.25
7:53 pm 19:53 Cloudy with Light Rain 41 5 36 2.2 82 82 N 7 11 30.23 1024 10 16 0.01 0.25
8:04 pm 20:04 Cloudy 41 5 37 2.8 86 86 Calm 30.24 1024 10 16 0.00 0.03
8:26 pm 20:26 Cloudy 41 5 36 2.2 82 82 NNE 10 17 30.24 1024 10 16 0.00 0.03
8:53 pm 20:53 Cloudy 40 4.4 35 1.7 83 83 NNE 14 22 30.27 1025 10 16 0.00 0.03
9:08 pm 21:08 Cloudy 40 4.4 35 1.7 83 83 NNE 12 19 30.27 1025 10 16 0.00 0.00
9:30 pm 21:30 Cloudy 40 4.4 35 1.7 83 83 N 10 17 30.30 1026 10 16 0.00 0.00
9:53 pm 21:53 Cloudy 40 4.4 35 1.7 83 83 N 9 15 30.29 1026 10 16 0.00 0.00
10:32 pm 22:32 Cloudy 39 3.9 33 0.6 79 79 N 10 17 30.33 1027 10 16 0.00 0.00
10:43 pm 22:43 Cloudy 39 3.9 32 0 76 76 NNW 15 24 30.36 1028 10 16 0.00 0.00
10:53 pm 22:53 Cloudy 38 3.3 32 0 79 79 N 12 19 30.32 1027 10 16 0.00 0.00
11:23 pm 23:23 Cloudy 37 2.8 31 -0.6 79 79 NNE 12 19 30.36 1028 10 16 0.00 0.00
11:42 pm 23:42 Cloudy 36 2.2 28 -2.2 73 73 N 9 15 30.36 1028 10 16 0.00 0.00
11:53 pm 23:53 Partly Cloudy 35 1.7 23 -5 61 61 N 12 19 30.34 1028 10 16 0.00 0.00

Powered by AerisWeather